 day,  time,  air_temp(C),  RH(%),  ground_temp10cm(C),  ground_temp20cm(C),  ground_temp40cm(C),  precipitation(mm/h),  Solar_Radiation(MJ/m2h),  lack, 
 01/05/01, 01:00,   6.3,  95,   9.3,   9.4,   7.7,   0.0,  0.00, 
 01/05/01, 02:00,   7.0,  86,   9.1,   9.3,   7.7,   0.0,  0.00, 
 01/05/01, 03:00,   6.4,  88,   8.8,   9.2,   7.8,   0.0,  0.00, 
 01/05/01, 04:00,   6.5,  89,   8.5,   9.1,   7.8,   0.0,  0.00, 
 01/05/01, 05:00,   5.6,  93,   8.3,   9.0,   7.8,   0.0,  0.00, 
 01/05/01, 06:00,   6.2,  89,   8.1,   8.8,   7.8,   0.0,  0.15, 
 01/05/01, 07:00,  10.2,  80,   7.9,   8.9,   7.9,   0.0,  0.82, 
 01/05/01, 08:00,  11.2,  68,   8.2,   8.8,   7.9,   0.0,  1.53, 
 01/05/01, 09:00,  12.5,  69,   8.8,   8.7,   7.9,   0.0,  2.30, 
 01/05/01, 10:00,  13.2,  68,   9.5,   8.6,   7.9,   0.0,  2.54, 
 01/05/01, 11:00,  14.9,  62,  10.3,   8.7,   7.9,   0.0,  2.89, 
 01/05/01, 12:00,  15.9,  53,  11.2,   8.7,   8.0,   0.0,  3.00, 
 01/05/01, 13:00,  17.3,  41,  12.0,   8.9,   8.0,   0.0,  3.05, 
 01/05/01, 14:00,  19.6,  49,  12.2,   9.1,   8.0,   0.0,  2.99, 
 01/05/01, 15:00,  16.9,  61,  12.4,   9.3,   8.1,   0.0,  2.28, 
 01/05/01, 16:00,  13.9,  73,  12.5,   9.5,   8.1,   0.0,  0.83, 
 01/05/01, 17:00,  12.8,  79,  12.5,   9.7,   8.1,   0.0,  0.19, 
 01/05/01, 18:00,  11.8,  87,  12.3,   9.8,   8.1,   0.0,  0.05, 
 01/05/01, 19:00,  10.7,  95,  12.1,   9.9,   8.1,   0.0,  0.00, 
 01/05/01, 20:00,   9.6,  99,  11.9,  10.0,   8.1,   0.0,  0.00, 
 01/05/01, 21:00,   8.9,  99,  11.7,  10.1,   8.1,   0.0,  0.00, 
 01/05/01, 22:00,   8.4,  99,  11.6,  10.1,   8.2,   0.0,  0.00, 
 01/05/01, 23:00,   8.2,  99,  11.3,  10.1,   8.2,   0.0,  0.00, 
 01/05/02, 00:00,   7.7,  99,  11.2,  10.1,   8.2,   0.0,  0.00, 
 01/05/02, 01:00,   7.0,  99,  11.0,  10.1,   8.2,   0.0,  0.00, 
 01/05/02, 02:00,   6.7,  99,  10.7,  10.1,   8.2,   0.0,  0.00, 
 01/05/02, 03:00,   6.2,  99,  10.5,  10.1,   8.2,   0.0,  0.00, 
 01/05/02, 04:00,   5.8,  99,  10.4,  10.0,   8.2,   0.0,  0.00, 
 01/05/02, 05:00,   5.6,  99,  10.2,  10.0,   8.3,   0.0,  0.00, 
 01/05/02, 06:00,   5.5,  99,  10.0,   9.9,   8.3,   0.0,  0.00, 
 01/05/02, 07:00,   5.6,  99,   9.8,   9.9,   8.3,   0.0,  0.07, 
 01/05/02, 08:00,   5.8,  99,   9.7,   9.8,   8.3,   0.0,  0.18, 
 01/05/02, 09:00,   5.9,  99,   9.6,   9.7,   8.3,   0.0,  0.19, 
 01/05/02, 10:00,   6.2,  99,   9.5,   9.7,   8.4,   0.0,  0.27, 
 01/05/02, 11:00,   5.8,  99,   9.5,   9.6,   8.4,   0.0,  0.25, 
 01/05/02, 12:00,   6.3,  99,   9.5,   9.6,   8.4,   0.0,  0.36, 
 01/05/02, 13:00,   6.1,  99,   9.5,   9.5,   8.4,   0.0,  0.20, 
 01/05/02, 14:00,   6.5,  99,   9.5,   9.5,   8.4,   0.0,  0.52, 
 01/05/02, 15:00,   5.8,  91,   9.5,   9.4,   8.4,   0.0,  0.29, 
 01/05/02, 16:00,   4.9,  96,   9.4,   9.4,   8.4,   0.0,  0.31, 
 01/05/02, 17:00,   4.5,  99,   9.4,   9.4,   8.4,   0.5,  0.22, 
 01/05/02, 18:00,   4.5,  99,   9.3,   9.4,   8.5,   0.0,  0.06, 
 01/05/02, 19:00,   4.6,  99,   9.1,   9.3,   8.5,   0.0,  0.00, 
 01/05/02, 20:00,   4.2,  99,   8.9,   9.3,   8.5,   1.5,  0.00, 
 01/05/02, 21:00,   4.3,  99,   8.7,   9.3,   8.5,   1.0,  0.00, 
 01/05/02, 22:00,   4.2,  99,   8.5,   9.2,   8.5,   1.5,  0.00, 
 01/05/02, 23:00,   4.4,  99,   8.3,   9.1,   8.5,   2.5,  0.00, 
 01/05/03, 00:00,   4.1,  99,   8.1,   9.0,   8.5,   1.5,  0.00, 
 01/05/03, 01:00,   3.8,  99,   7.9,   9.0,   8.5,   3.0,  0.00, 
 01/05/03, 02:00,   3.0,  99,   7.5,   8.8,   8.5,   6.0,  0.00, 
 01/05/03, 03:00,   3.4,  99,   7.2,   8.7,   8.5,   4.0,  0.00, 
 01/05/03, 04:00,   3.6,  99,   7.0,   8.6,   8.5,   1.5,  0.00, 
 01/05/03, 05:00,   3.6,  99,   6.8,   8.4,   8.5,   1.5,  0.00, 
 01/05/03, 06:00,   3.9,  99,   6.7,   8.3,   8.5,   2.5,  0.00, 
 01/05/03, 07:00,   4.0,  99,   6.5,   8.2,   8.5,   1.5,  0.05, 
 01/05/03, 08:00,   4.8,  99,   6.5,   8.0,   8.5,   1.5,  0.31, 
 01/05/03, 09:00,   5.6,  99,   6.6,   7.9,   8.5,   0.5,  0.77, 
 01/05/03, 10:00,   6.4,  99,   7.0,   7.8,   8.4,   0.5,  1.61, 
 01/05/03, 11:00,   8.3,  98,   7.4,   7.8,   8.4,   0.5,  2.14, 
 01/05/03, 12:00,  10.5,  79,   8.4,   7.8,   8.4,   0.5,  3.48, 
 01/05/03, 13:00,   9.5,  87,   9.6,   7.8,   8.4,   0.0,  1.97, 
 01/05/03, 14:00,   8.5,  87,  10.0,   7.9,   8.3,   0.0,  0.48, 
 01/05/03, 15:00,   8.8,  89,  10.0,   8.1,   8.3,   0.5,  0.59, 
 01/05/03, 16:00,   7.9,  93,   9.9,   8.3,   8.3,   0.0,  0.45, 
 01/05/03, 17:00,   7.3,  98,   9.9,   8.4,   8.3,   0.0,  0.17, 
 01/05/03, 18:00,   6.9,  99,   9.7,   8.5,   8.2,   0.0,  0.11, 
 01/05/03, 19:00,   6.4,  99,   9.5,   8.6,   8.2,   0.0,  0.00, 
 01/05/03, 20:00,   6.3,  99,   9.3,   8.7,   8.2,   0.0,  0.00, 
 01/05/03, 21:00,   6.0,  99,   9.1,   8.7,   8.2,   0.0,  0.00, 
 01/05/03, 22:00,   5.6,  99,   9.0,   8.7,   8.2,   0.0,  0.00, 
 01/05/03, 23:00,   5.5,  99,   8.8,   8.7,   8.2,   0.0,  0.00, 
 01/05/04, 00:00,   5.2,  99,   8.6,   8.7,   8.2,   0.0,  0.00, 
 01/05/04, 01:00,   5.1,  99,   8.5,   8.7,   8.2,   0.0,  0.00, 
 01/05/04, 02:00,   4.9,  99,   8.4,   8.6,   8.2,   0.0,  0.00, 
 01/05/04, 03:00,   4.7,  99,   8.3,   8.6,   8.2,   0.0,  0.00, 
 01/05/04, 04:00,   4.7,  99,   8.1,   8.5,   8.2,   0.0,  0.00, 
 01/05/04, 05:00,   4.3,  99,   8.0,   8.5,   8.2,   0.0,  0.00, 
 01/05/04, 06:00,   4.2,  99,   7.9,   8.5,   8.2,   0.0,  0.03, 
 01/05/04, 07:00,   4.5,  99,   7.9,   8.4,   8.2,   0.0,  0.21, 
 01/05/04, 08:00,   5.0,  99,   7.9,   8.4,   8.2,   0.0,  0.67, 
 01/05/04, 09:00,   6.1,  95,   8.0,   8.3,   8.2,   0.0,  1.46, 
 01/05/04, 10:00,  10.1,  72,   8.3,   8.3,   8.2,   0.0,  2.60, 
 01/05/04, 11:00,  10.7,  67,   9.1,   8.3,   8.2,   0.0,  3.36, 
 01/05/04, 12:00,  12.8,  58,  10.3,   8.3,   8.2,   0.0,  3.57, 
 01/05/04, 13:00,  13.6,  57,  11.4,   8.4,   8.2,   0.0,  3.36, 
 01/05/04, 14:00,  13.3,  58,  11.7,   8.6,   8.2,   0.0,  2.43, 
 01/05/04, 15:00,  13.8,  55,  11.8,   8.8,   8.2,   0.0,  2.47, 
 01/05/04, 16:00,  13.2,  49,  11.9,   9.1,   8.2,   0.0,  2.04, 
 01/05/04, 17:00,  12.0,  53,  12.0,   9.3,   8.2,   0.0,  1.37, 
 01/05/04, 18:00,  10.1,  70,  11.8,   9.4,   8.2,   0.0,  0.57, 
 01/05/04, 19:00,   8.2,  79,  11.5,   9.6,   8.2,   0.5,  0.04, 
 01/05/04, 20:00,   7.1,  83,  11.2,   9.7,   8.2,   0.0,  0.00, 
 01/05/04, 21:00,   6.0,  90,  10.8,   9.7,   8.2,   0.0,  0.00, 
 01/05/04, 22:00,   4.8,  96,  10.4,   9.7,   8.2,   0.0,  0.00, 
 01/05/04, 23:00,   5.4,  91,  10.1,   9.6,   8.3,   0.0,  0.00, 
 01/05/05, 00:00,   7.1,  90,   9.8,   9.7,   8.3,   0.0,  0.00, 
 01/05/05, 01:00,   6.2,  97,   9.6,   9.6,   8.3,   0.0,  0.00, 
 01/05/05, 02:00,   6.5,  97,   9.3,   9.6,   8.3,   0.0,  0.00, 
 01/05/05, 03:00,   6.2,  99,   9.2,   9.5,   8.4,   0.0,  0.00, 
 01/05/05, 04:00,   6.2,  96,   9.0,   9.3,   8.4,   0.0,  0.00, 
 01/05/05, 05:00,   6.1,  94,   8.9,   9.3,   8.4,   0.0,  0.00, 
 01/05/05, 06:00,   5.9,  96,   8.7,   9.3,   8.4,   0.0,  0.17, 
 01/05/05, 07:00,   7.8,  89,   8.6,   9.2,   8.4,   0.0,  0.75, 
 01/05/05, 08:00,   8.7,  87,   8.7,   9.1,   8.5,   0.0,  1.40, 
 01/05/05, 09:00,  10.5,  80,   9.2,   9.1,   8.5,   0.0,  2.01, 
 01/05/05, 10:00,  12.2,  61,   9.7,   9.1,   8.5,   0.0,  3.00, 
 01/05/05, 11:00,  12.7,  56,  10.7,   9.1,   8.5,   0.0,  3.29, 
 01/05/05, 12:00,  16.2,  47,  11.8,   9.1,   8.5,   0.0,  3.10, 
 01/05/05, 13:00,  15.3,  48,  12.7,   9.3,   8.5,   0.0,  2.74, 
 01/05/05, 14:00,  15.8,  47,  13.2,   9.5,   8.5,   0.0,  2.21, 
 01/05/05, 15:00,  14.4,  44,  13.3,   9.7,   8.5,   0.0,  1.70, 
 01/05/05, 16:00,  13.6,  48,  13.3,  10.0,   8.5,   0.0,  1.17, 
 01/05/05, 17:00,  12.7,  59,  13.2,  10.2,   8.5,   0.0,  0.64, 
 01/05/05, 18:00,  11.2,  66,  13.1,  10.3,   8.5,   0.0,  0.44, 
 01/05/05, 19:00,   9.2,  85,  12.7,  10.5,   8.5,   0.0,  0.05, 
 01/05/05, 20:00,   8.1,  90,  12.3,  10.6,   8.6,   0.0,  0.00, 
 01/05/05, 21:00,   8.1,  91,  11.8,  10.6,   8.6,   0.0,  0.00, 
 01/05/05, 22:00,   8.5,  90,  11.5,  10.6,   8.6,   0.0,  0.00, 
 01/05/05, 23:00,   7.4,  98,  11.2,  10.6,   8.6,   0.0,  0.00, 
 01/05/06, 00:00,   5.8,  99,  11.0,  10.6,   8.7,   0.0,  0.00, 
 01/05/06, 01:00,   5.4,  99,  10.6,  10.4,   8.7,   0.0,  0.00, 
 01/05/06, 02:00,   5.0,  99,  10.3,  10.4,   8.7,   0.0,  0.00, 
 01/05/06, 03:00,   4.6,  99,  10.0,  10.4,   8.8,   0.0,  0.00, 
 01/05/06, 04:00,   4.8,  99,   9.7,  10.3,   8.8,   0.0,  0.00, 
 01/05/06, 05:00,   5.0,  99,   9.4,  10.2,   8.8,   0.0,  0.00, 
 01/05/06, 06:00,   5.7,  99,   9.1,  10.1,   8.8,   0.0,  0.15, 
 01/05/06, 07:00,   8.3,  88,   9.0,  10.0,   8.9,   0.0,  0.76, 
 01/05/06, 08:00,  10.1,  77,   9.2,   9.9,   8.9,   0.0,  1.53, 
 01/05/06, 09:00,  14.1,  61,   9.7,   9.8,   8.9,   0.0,  2.23, 
 01/05/06, 10:00,  13.1,  66,  10.4,   9.7,   8.9,   0.0,  2.55, 
 01/05/06, 11:00,  15.0,  54,  11.2,   9.7,   8.9,   0.0,  1.86, 
 01/05/06, 12:00,  17.3,  43,  12.0,   9.8,   9.0,   0.0,  3.16, 
 01/05/06, 13:00,  18.0,  43,  13.1,   9.9,   9.0,   0.0,  2.78, 
 01/05/06, 14:00,  17.2,  46,  13.4,  10.1,   9.0,   0.0,  2.73, 
 01/05/06, 15:00,  18.0,  50,  13.5,  10.3,   9.0,   0.0,  2.41, 
 01/05/06, 16:00,  16.4,  54,  13.6,  10.5,   8.9,   0.0,  2.10, 
 01/05/06, 17:00,  14.1,  70,  13.8,  10.7,   9.0,   0.0,  1.27, 
 01/05/06, 18:00,  12.4,  76,  13.7,  10.8,   8.9,   0.0,  0.37, 
 01/05/06, 19:00,  11.3,  80,  13.5,  11.0,   9.0,   0.0,  0.00, 
 01/05/06, 20:00,  10.0,  94,  13.1,  11.1,   9.0,   0.0,  0.00, 
 01/05/06, 21:00,   9.8,  92,  12.7,  11.1,   9.0,   0.0,  0.00, 
 01/05/06, 22:00,   9.6,  92,  12.4,  11.2,   9.0,   0.0,  0.00, 
 01/05/06, 23:00,   8.9,  96,  12.1,  11.2,   9.0,   0.0,  0.00, 
 01/05/07, 00:00,   8.7,  99,  11.8,  11.2,   9.1,   0.0,  0.00, 
 01/05/07, 01:00,   8.1,  99,  11.6,  11.1,   9.1,   0.0,  0.00, 
 01/05/07, 02:00,   7.8,  99,  11.4,  11.1,   9.1,   0.0,  0.00, 
 01/05/07, 03:00,   7.3,  99,  11.2,  11.0,   9.2,   0.0,  0.00, 
 01/05/07, 04:00,   5.4,  99,  11.0,  11.0,   9.2,   0.0,  0.00, 
 01/05/07, 05:00,   5.4,  98,  10.7,  10.9,   9.2,   0.0,  0.00, 
 01/05/07, 06:00,   6.3,  96,  10.4,  10.8,   9.2,   0.0,  0.17, 
 01/05/07, 07:00,   9.1,  69,  10.3,  10.7,   9.3,   0.0,  0.81, 
 01/05/07, 08:00,  11.2,  58,  10.4,  10.6,   9.3,   0.0,  1.54, 
 01/05/07, 09:00,  13.6,  53,  10.7,  10.6,   9.3,   0.0,  2.19, 
 01/05/07, 10:00,  15.3,  53,  11.2,  10.5,   9.3,   0.0,  2.70, 
 01/05/07, 11:00,  14.7,  55,  12.1,  10.5,   9.3,   0.0,  3.04, 
 01/05/07, 12:00,  15.4,  54,  13.2,  10.6,   9.3,   0.0,  2.31, 
 01/05/07, 13:00,  16.6,  52,  13.8,  10.7,   9.3,   0.0,  2.23, 
 01/05/07, 14:00,  15.4,  57,  14.0,  10.9,   9.3,   0.0,  1.35, 
 01/05/07, 15:00,  17.0,  57,  14.0,  11.0,   9.4,   0.0,  1.87, 
 01/05/07, 16:00,  15.4,  64,  14.0,  11.2,   9.4,   0.0,  1.07, 
 01/05/07, 17:00,  14.1,  74,  14.0,  11.3,   9.4,   0.0,  0.49, 
 01/05/07, 18:00,  11.9,  93,  13.9,  11.5,   9.4,   0.0,  0.11, 
 01/05/07, 19:00,  11.0,  99,  13.6,  11.6,   9.4,   0.0,  0.00, 
 01/05/07, 20:00,  11.1,  98,  13.4,  11.6,   9.4,   0.0,  0.00, 
 01/05/07, 21:00,  11.2,  94,  13.2,  11.7,   9.4,   0.0,  0.00, 
 01/05/07, 22:00,  10.5,  99,  13.0,  11.7,   9.5,   0.0,  0.00, 
 01/05/07, 23:00,  10.9,  93,  12.6,  11.7,   9.5,   0.0,  0.00, 
 01/05/08, 00:00,  11.4,  81,  12.4,  11.7,   9.5,   0.0,  0.00, 
 01/05/08, 01:00,  11.5,  77,  12.3,  11.6,   9.5,   0.0,  0.00, 
 01/05/08, 02:00,  10.3,  93,  12.1,  11.6,   9.6,   0.0,  0.00, 
 01/05/08, 03:00,  10.9,  84,  11.9,  11.6,   9.6,   0.0,  0.00, 
 01/05/08, 04:00,   9.8,  96,  11.7,  11.5,   9.6,   0.0,  0.00, 
 01/05/08, 05:00,   9.8,  96,  11.6,  11.4,   9.6,   0.0,  0.00, 
 01/05/08, 06:00,   9.3,  99,  11.5,  11.4,   9.7,   0.0,  0.00, 
 01/05/08, 07:00,   9.8,  99,  11.4,  11.3,   9.7,   0.0,  0.08, 
 01/05/08, 08:00,  10.2,  99,  11.3,  11.3,   9.7,   0.0,  0.36, 
 01/05/08, 09:00,  11.3,  99,  11.3,  11.2,   9.7,   0.0,  0.46, 
 01/05/08, 10:00,  11.4,  99,  11.4,  11.2,   9.7,   0.0,  0.39, 
 01/05/08, 11:00,  11.6,  99,  11.5,  11.1,   9.7,   0.0,  0.60, 
 01/05/08, 12:00,  12.2,  99,  11.7,  11.1,   9.8,   0.0,  0.86, 
 01/05/08, 13:00,  13.6,  99,  12.0,  11.1,   9.8,   0.0,  1.03, 
 01/05/08, 14:00,  12.5,  99,  12.2,  11.1,   9.8,   0.0,  0.46, 
 01/05/08, 15:00,  13.1,  99,  12.4,  11.1,   9.8,   0.5,  0.60, 
 01/05/08, 16:00,  13.6,  99,  12.5,  11.2,   9.8,   0.0,  0.68, 
 01/05/08, 17:00,  13.7,  99,  12.7,  11.2,   9.8,   1.0,  0.64, 
 01/05/08, 18:00,  13.5,  99,  12.9,  11.3,   9.8,   0.5,  0.44, 
 01/05/08, 19:00,  12.9,  99,  13.0,  11.4,   9.8,   0.0,  0.05, 
 01/05/08, 20:00,  12.9,  99,  13.0,  11.4,   9.8,   0.5,  0.00, 
 01/05/08, 21:00,  12.7,  99,  12.8,  11.5,   9.8,   0.0,  0.00, 
 01/05/08, 22:00,  12.6,  99,  12.7,  11.5,   9.8,   0.0,  0.00, 
 01/05/08, 23:00,  12.6,  99,  12.6,  11.6,   9.9,   0.5,  0.00, 
 01/05/09, 00:00,  12.6,  99,  12.5,  11.6,   9.9,   0.5,  0.00, 
 01/05/09, 01:00,  12.5,  99,  12.4,  11.6,   9.9,   0.0,  0.00, 
 01/05/09, 02:00,  12.5,  99,  12.4,  11.6,   9.9,   0.5,  0.00, 
 01/05/09, 03:00,  12.7,  99,  12.3,  11.6,   9.9,   0.5,  0.00, 
 01/05/09, 04:00,  12.3,  99,  12.2,  11.6,   9.9,   0.0,  0.00, 
 01/05/09, 05:00,  12.6,  99,  12.1,  11.6,  10.0,   0.5,  0.00, 
 01/05/09, 06:00,  12.7,  99,  12.1,  11.6,  10.0,   0.0,  0.03, 
 01/05/09, 07:00,  13.3,  99,  12.1,  11.5,  10.0,   0.5,  0.29, 
 01/05/09, 08:00,  13.6,  99,  12.2,  11.5,  10.0,   0.0,  0.31, 
 01/05/09, 09:00,  14.2,  99,  12.3,  11.5,  10.0,   0.5,  0.91, 
 01/05/09, 10:00,  14.8,  99,  12.7,  11.5,  10.0,   0.0,  1.35, 
 01/05/09, 11:00,  17.5,  93,  13.2,  11.5,  10.1,   0.0,  1.43, 
 01/05/09, 12:00,  18.9,  78,  13.9,  11.6,  10.1,   0.5,  1.87, 
 01/05/09, 13:00,  18.4,  67,  14.5,  11.7,  10.1,   0.0,  2.70, 
 01/05/09, 14:00,  21.8,  61,  14.8,  11.8,  10.1,   0.5,  2.72, 
 01/05/09, 15:00,  20.1,  60,  14.9,  12.0,  10.2,   0.0,  2.78, 
 01/05/09, 16:00,  17.0,  80,  15.1,  12.1,  10.1,   0.0,  1.56, 
 01/05/09, 17:00,  15.7,  83,  15.2,  12.3,  10.1,   0.0,  0.88, 
 01/05/09, 18:00,  15.6,  84,  15.2,  12.4,  10.2,   0.5,  0.39, 
 01/05/09, 19:00,  14.0,  93,  15.1,  12.5,  10.2,   0.0,  0.06, 
 01/05/09, 20:00,  13.1,  99,  14.8,  12.5,  10.2,   0.0,  0.00, 
 01/05/09, 21:00,  11.7,  93,  14.5,  12.7,  10.2,   0.0,  0.00, 
 01/05/09, 22:00,  10.9,  87,  14.3,  12.8,  10.2,   0.0,  0.00, 
 01/05/09, 23:00,  10.4,  88,  13.8,  12.7,  10.3,   0.0,  0.00, 
 01/05/10, 00:00,   9.0,  90,  13.6,  12.8,  10.3,   0.0,  0.00, 
 01/05/10, 01:00,   9.8,  80,  13.2,  12.6,  10.3,   0.0,  0.00, 
 01/05/10, 02:00,   9.3,  86,  12.8,  12.6,  10.4,   0.0,  0.00, 
 01/05/10, 03:00,   7.9,  97,  12.5,  12.5,  10.4,   0.0,  0.00, 
 01/05/10, 04:00,   8.2,  93,  12.2,  12.4,  10.4,   0.0,  0.00, 
 01/05/10, 05:00,   8.6,  78,  12.0,  12.4,  10.5,   0.0,  0.00, 
 01/05/10, 06:00,   8.6,  79,  11.8,  12.3,  10.5,   0.0,  0.15, 
 01/05/10, 07:00,   9.5,  66,  11.6,  12.2,  10.5,   0.0,  0.51, 
 01/05/10, 08:00,  10.1,  63,  11.6,  12.0,  10.5,   0.0,  0.81, 
 01/05/10, 09:00,  10.8,  67,  11.7,  12.0,  10.5,   0.0,  1.05, 
 01/05/10, 10:00,  10.6,  65,  11.9,  11.9,  10.6,   0.0,  0.75, 
 01/05/10, 11:00,  11.2,  60,  12.0,  11.9,  10.6,   0.0,  1.20, 
 01/05/10, 12:00,  11.9,  54,  12.2,  11.8,  10.6,   0.0,  1.63, 
 01/05/10, 13:00,  13.3,  51,  12.5,  11.8,  10.6,   0.0,  2.40, 
 01/05/10, 14:00,  13.3,  52,  12.9,  11.8,  10.6,   0.0,  1.70, 
 01/05/10, 15:00,  12.7,  50,  13.0,  11.8,  10.6,   0.0,  2.24, 
 01/05/10, 16:00,  13.8,  52,  13.1,  11.9,  10.6,   0.0,  2.28, 
 01/05/10, 17:00,  12.0,  64,  13.4,  11.9,  10.6,   0.0,  1.53, 
 01/05/10, 18:00,  10.0,  72,  13.4,  12.0,  10.6,   0.0,  0.78, 
 01/05/10, 19:00,   8.3,  76,  13.2,  12.0,  10.6,   0.0,  0.07, 
 01/05/10, 20:00,   6.4,  80,  12.9,  12.1,  10.6,   0.0,  0.00, 
 01/05/10, 21:00,   6.5,  71,  12.3,  12.1,  10.6,   0.0,  0.00, 
 01/05/10, 22:00,   6.5,  64,  11.9,  12.0,  10.6,   0.0,  0.00, 
 01/05/10, 23:00,   6.3,  53,  11.5,  12.0,  10.6,   0.0,  0.00, 
 01/05/11, 00:00,   6.3,  40,  11.1,  11.9,  10.6,   0.0,  0.00, 
 01/05/11, 01:00,   3.1,  44,  10.7,  11.7,  10.6,   0.0,  0.00, 
 01/05/11, 02:00,   4.2,  37,  10.3,  11.7,  10.6,   0.0,  0.00, 
 01/05/11, 03:00,   6.8,  25,   9.9,  11.4,  10.6,   0.0,  0.00, 
 01/05/11, 04:00,   7.3,  32,   9.6,  11.4,  10.6,   0.0,  0.00, 
 01/05/11, 05:00,   6.8,  46,   9.4,  11.3,  10.6,   0.0,  0.00, 
 01/05/11, 06:00,   7.2,  52,   9.2,  11.1,  10.6,   0.0,  0.14, 
 01/05/11, 07:00,   9.4,  47,   9.1,  11.0,  10.6,   0.0,  0.76, 
 01/05/11, 08:00,   9.9,  47,   9.3,  10.8,  10.6,   0.0,  1.35, 
 01/05/11, 09:00,  11.3,  46,   9.6,  10.7,  10.6,   0.0,  1.67, 
 01/05/11, 10:00,  12.1,  43,  10.1,  10.5,  10.6,   0.0,  2.38, 
 01/05/11, 11:00,  12.7,  43,  10.8,  10.6,  10.6,   0.0,  1.92, 
 01/05/11, 12:00,  13.6,  41,  11.4,  10.6,  10.6,   0.0,  2.63, 
 01/05/11, 13:00,  15.6,  32,  12.2,  10.7,  10.6,   0.0,  3.78, 
 01/05/11, 14:00,  14.3,  35,  12.4,  10.8,  10.5,   0.0,  3.09, 
 01/05/11, 15:00,  12.5,  42,  12.4,  10.9,  10.5,   0.0,  2.25, 
 01/05/11, 16:00,  11.3,  47,  12.5,  11.0,  10.5,   0.0,  1.85, 
 01/05/11, 17:00,  10.0,  49,  12.6,  11.1,  10.5,   0.0,  0.98, 
 01/05/11, 18:00,   8.8,  57,  12.5,  11.2,  10.5,   0.0,  0.43, 
 01/05/11, 19:00,   6.8,  61,  12.2,  11.3,  10.5,   0.0,  0.09, 
 01/05/11, 20:00,   6.5,  73,  11.8,  11.4,  10.4,   0.0,  0.00, 
 01/05/11, 21:00,   6.2,  72,  11.4,  11.4,  10.4,   0.0,  0.00, 
 01/05/11, 22:00,   5.8,  72,  11.0,  11.3,  10.4,   0.0,  0.00, 
 01/05/11, 23:00,   4.8,  74,  10.6,  11.3,  10.4,   0.0,  0.00, 
 01/05/12, 00:00,   2.6,  81,  10.3,  11.1,  10.4,   0.0,  0.00, 
 01/05/12, 01:00,   4.6,  61,   9.9,  11.1,  10.4,   0.0,  0.00, 
 01/05/12, 02:00,   0.9,  80,   9.6,  10.9,  10.4,   0.0,  0.00, 
 01/05/12, 03:00,   0.7,  76,   9.3,  10.8,  10.5,   0.0,  0.00, 
 01/05/12, 04:00,   1.0,  71,   8.9,  10.8,  10.4,   0.0,  0.00, 
 01/05/12, 05:00,   2.8,  60,   8.6,  10.5,  10.4,   0.0,  0.00, 
 01/05/12, 06:00,   2.5,  56,   8.3,  10.4,  10.4,   0.0,  0.20, 
 01/05/12, 07:00,   7.4,  45,   8.2,  10.4,  10.4,   0.0,  1.05, 
 01/05/12, 08:00,   9.0,  47,   8.4,  10.2,  10.4,   0.0,  1.79, 
 01/05/12, 09:00,  10.0,  49,   9.1,  10.1,  10.4,   0.0,  2.52, 
 01/05/12, 10:00,  12.2,  41,   9.8,  10.0,  10.4,   0.0,  3.09, 
 01/05/12, 11:00,  15.2,  33,  10.9,  10.0,  10.4,   0.0,  3.44, 
 01/05/12, 12:00,  14.6,  28,  12.3,  10.1,  10.4,   0.0,  3.61, 
 01/05/12, 13:00,  16.7,  29,  13.5,  10.2,  10.4,   0.0,  3.57, 
 01/05/12, 14:00,  16.1,  29,  13.6,  10.5,  10.3,   0.0,  3.27, 
 01/05/12, 15:00,  16.8,  34,  13.5,  10.7,  10.3,   0.0,  2.64, 
 01/05/12, 16:00,  16.0,  39,  13.4,  11.0,  10.3,   0.0,  2.17, 
 01/05/12, 17:00,  13.3,  52,  13.6,  11.1,  10.3,   0.0,  1.49, 
 01/05/12, 18:00,  11.4,  59,  13.5,  11.3,  10.3,   0.0,  0.70, 
 01/05/12, 19:00,   9.1,  72,  13.2,  11.4,  10.3,   0.0,  0.09, 
 01/05/12, 20:00,   7.2,  79,  12.7,  11.5,  10.3,   0.0,  0.00, 
 01/05/12, 21:00,   7.3,  80,  12.3,  11.6,  10.3,   0.0,  0.00, 
 01/05/12, 22:00,   5.8,  87,  11.9,  11.6,  10.3,   0.0,  0.00, 
 01/05/12, 23:00,   6.4,  79,  11.5,  11.6,  10.3,   0.0,  0.00, 
 01/05/13, 00:00,   5.9,  81,  11.2,  11.5,  10.3,   0.0,  0.00, 
 01/05/13, 01:00,   5.8,  82,  10.8,  11.4,  10.3,   0.0,  0.00, 
 01/05/13, 02:00,   5.8,  89,  10.5,  11.3,  10.3,   0.0,  0.00, 
 01/05/13, 03:00,   5.7,  88,  10.2,  11.3,  10.3,   0.0,  0.00, 
 01/05/13, 04:00,   5.6,  87,  10.0,  11.1,  10.4,   0.0,  0.00, 
 01/05/13, 05:00,   5.2,  83,   9.7,  10.9,  10.4,   0.0,  0.00, 
 01/05/13, 06:00,   6.4,  73,   9.5,  10.8,  10.4,   0.0,  0.20, 
 01/05/13, 07:00,  11.3,  50,   9.4,  10.8,  10.4,   0.0,  1.03, 
 01/05/13, 08:00,  12.2,  53,   9.7,  10.7,  10.4,   0.0,  1.79, 
 01/05/13, 09:00,  13.1,  40,  10.4,  10.6,  10.4,   0.0,  2.48, 
 01/05/13, 10:00,  15.9,  26,  11.0,  10.6,  10.4,   0.0,  3.10, 
 01/05/13, 11:00,  17.7,  29,  12.1,  10.6,  10.4,   0.0,  3.44, 
 01/05/13, 12:00,  19.8,  21,  13.5,  10.7,  10.4,   0.0,  3.64, 
 01/05/13, 13:00,  19.8,  18,  14.6,  10.8,  10.4,   0.0,  3.61, 
 01/05/13, 14:00,  20.7,  18,  14.6,  11.1,  10.4,   0.0,  3.33, 
 01/05/13, 15:00,  21.4,  19,  14.4,  11.4,  10.4,   0.0,  2.85, 
 01/05/13, 16:00,  21.5,  27,  14.4,  11.6,  10.4,   0.0,  2.22, 
 01/05/13, 17:00,  19.9,  30,  14.5,  11.8,  10.4,   0.0,  1.48, 
 01/05/13, 18:00,  16.3,  38,  14.6,  11.9,  10.4,   0.0,  0.72, 
 01/05/13, 19:00,  14.2,  41,  14.4,  12.1,  10.4,   0.0,  0.08, 
 01/05/13, 20:00,  12.2,  43,  13.9,  12.1,  10.4,   0.0,  0.00, 
 01/05/13, 21:00,  11.8,  43,  13.5,  12.2,  10.4,   0.0,  0.00, 
 01/05/13, 22:00,  11.5,  48,  13.1,  12.3,  10.4,   0.0,  0.00, 
 01/05/13, 23:00,  10.6,  56,  12.6,  12.2,  10.4,   0.0,  0.00, 
 01/05/14, 00:00,   8.0,  69,  12.2,  12.1,  10.5,   0.0,  0.00, 
 01/05/14, 01:00,   7.1,  74,  11.9,  12.0,  10.5,   0.0,  0.00, 
 01/05/14, 02:00,   7.2,  80,  11.6,  12.0,  10.5,   0.0,  0.00, 
 01/05/14, 03:00,   8.0,  67,  11.3,  12.0,  10.5,   0.0,  0.00, 
 01/05/14, 04:00,   8.8,  56,  11.0,  11.8,  10.6,   0.0,  0.00, 
 01/05/14, 05:00,   9.0,  64,  10.7,  11.7,  10.6,   0.0,  0.00, 
 01/05/14, 06:00,   9.5,  58,  10.4,  11.6,  10.6,   0.0,  0.23, 
 01/05/14, 07:00,  13.2,  51,  10.4,  11.5,  10.6,   0.0,  0.97, 
 01/05/14, 08:00,  14.7,  50,  10.6,  11.4,  10.6,   0.0,  1.65, 
 01/05/14, 09:00,  16.3,  41,  11.2,  11.3,  10.6,   0.0,  2.37, 
 01/05/14, 10:00,  18.2,  41,  12.0,  11.3,  10.6,   0.0,  2.95, 
 01/05/14, 11:00,  18.3,  38,  13.2,  11.3,  10.7,   0.0,  3.27, 
 01/05/14, 12:00,  21.6,  28,  14.4,  11.4,  10.7,   0.0,  3.46, 
 01/05/14, 13:00,  21.9,  29,  15.5,  11.6,  10.7,   0.0,  3.28, 
 01/05/14, 14:00,  21.5,  32,  15.8,  11.8,  10.7,   0.0,  2.54, 
 01/05/14, 15:00,  20.1,  41,  15.9,  12.1,  10.7,   0.0,  2.02, 
 01/05/14, 16:00,  18.3,  59,  15.9,  12.3,  10.7,   0.0,  1.48, 
 01/05/14, 17:00,  16.1,  69,  16.0,  12.6,  10.7,   0.0,  0.76, 
 01/05/14, 18:00,  14.5,  75,  15.8,  12.7,  10.7,   0.0,  0.34, 
 01/05/14, 19:00,  12.9,  82,  15.6,  12.9,  10.7,   0.0,  0.02, 
 01/05/14, 20:00,  12.0,  88,  15.2,  13.0,  10.7,   0.0,  0.00, 
 01/05/14, 21:00,  11.6,  87,  14.8,  13.1,  10.7,   0.0,  0.00, 
 01/05/14, 22:00,  11.2,  86,  14.4,  13.1,  10.7,   0.0,  0.00, 
 01/05/14, 23:00,  10.2,  93,  14.1,  13.1,  10.8,   0.0,  0.00, 
 01/05/15, 00:00,   9.5,  95,  13.8,  13.1,  10.8,   0.0,  0.00, 
 01/05/15, 01:00,   8.4,  99,  13.5,  13.0,  10.8,   0.0,  0.00, 
 01/05/15, 02:00,   8.7,  91,  13.2,  13.0,  10.9,   0.0,  0.00, 
 01/05/15, 03:00,   8.6,  80,  12.9,  12.9,  10.9,   0.0,  0.00, 
 01/05/15, 04:00,   8.7,  87,  12.6,  12.8,  10.9,   0.0,  0.00, 
 01/05/15, 05:00,   9.7,  53,  12.3,  12.6,  10.9,   0.0,  0.00, 
 01/05/15, 06:00,  11.2,  45,  12.0,  12.6,  11.0,   0.0,  0.19, 
 01/05/15, 07:00,  12.7,  45,  11.8,  12.5,  11.0,   0.0,  0.92, 
 01/05/15, 08:00,  14.2,  46,  12.0,  12.4,  11.0,   0.0,  1.77, 
 01/05/15, 09:00,  14.6,  54,  12.5,  12.3,  11.0,   0.0,  2.47, 
 01/05/15, 10:00,  16.6,  53,  13.3,  12.3,  11.0,   0.0,  3.02, 
 01/05/15, 11:00,  18.9,  49,  14.3,  12.3,  11.1,   0.0,  3.26, 
 01/05/15, 12:00,  18.3,  52,  15.6,  12.4,  11.2,   0.0,  3.06, 
 01/05/15, 13:00,  20.2,  45,  16.6,  12.5,  11.2,   0.0,  2.91, 
 01/05/15, 14:00,  20.5,  44,  16.7,  12.8,  11.1,   0.0,  3.14, 
 01/05/15, 15:00,  19.9,  51,  16.6,  13.0,  11.1,   0.0,  2.16, 
 01/05/15, 16:00,  19.1,  55,  16.6,  13.3,  11.1,   0.0,  1.94, 
 01/05/15, 17:00,  16.9,  62,  16.7,  13.4,  11.1,   0.0,  0.98, 
 01/05/15, 18:00,  15.3,  71,  16.6,  13.6,  11.1,   0.0,  0.46, 
 01/05/15, 19:00,  13.8,  80,  16.4,  13.7,  11.1,   0.0,  0.04, 
 01/05/15, 20:00,  12.7,  87,  16.0,  13.8,  11.2,   0.0,  0.00, 
 01/05/15, 21:00,  12.4,  93,  15.6,  13.9,  11.3,   0.0,  0.00, 
 01/05/15, 22:00,  11.4,  93,  15.3,  13.9,  11.2,   0.0,  0.00, 
 01/05/15, 23:00,  11.0,  92,  15.0,  13.9,  11.2,   0.0,  0.00, 
 01/05/16, 00:00,  10.4,  94,  14.8,  13.8,  11.3,   0.0,  0.00, 
 01/05/16, 01:00,  10.1,  95,  14.5,  13.8,  11.3,   0.0,  0.00, 